337P/WISE (2016)

Japanese version
Home page
Updated on November 13, 2016

---------------------------------------------------------------------

* Profile

Designation 337P/2016 GE216
Recovery Date April 10 and June 5, 2016
Magnitude 20.5 mag, 18.4 mag
Recoverer Pan-STARRS 1 telescope (Haleakala), Erwin Schwab and P. Ruiz (European Space Agency's Optical Ground Station at Tenerife)

* Pictures

* Orbital Elements

Epoch 2016 July 31.0 TT = JDT 2457600.5
T 2016 July 13.23017 TT                                 MPCW
q   1.6545571            (2000.0)            P               Q
n   0.16542534     Peri.  160.86049     -0.04163033     +0.96615238
a   3.2865080      Node   106.10764     -0.94777443     +0.04245781
e   0.4965608      Incl.   15.36659     -0.31621282     -0.25445414
P   5.96
From 196 observations 2010 Apr. 13-2016 July 8, mean residual 0".3.

* Magnitudes Graph

        m1 = 17.3 + 5 log d + 10.0 log r

---------------------------------------------------------------------

The orbital elements are published on M.P.E.C. 2016-Q04.
The magnitudes graphs are made with Comet for Windows.

---------------------------------------------------------------------

Copyright(C) Seiichi Yoshida (comet@aerith.net). All rights reserved.